Vertical_Velocity
-2 -2 -1 -1 -1 -5 -4 -3 1 -9 2 -4 -3 -2 -1 -3 -2 -1 -2 -1 -1 1 1 1 -1 2 2 3 2 -2 1 -5 -18 9 -11 -1 -8 -2 0 3 -2 -4 -3
-3 -3 -0 -0 1 0 2 -0 7 3 -1 -1 -1 -0 -4 -1 -2 -6 -2 0 -1 -1 -1 2 0 0 1 0 -1 3 2 2 -2 -5 1 -3 -6 1 1 -3 -1 -5 -4
1 1 0 -2 1 -3 -1 -3 -1 -1 -4 -1 -0 -1 -2 0 -0 -2 -2 -2 -0 1 0 -1 1 1 1 3 3 2 2 1 -3 -6 0 -3 -6 -4 -3 -0 -1 0 1
-5 -5 -2 0 -4 -3 -4 -3 -1 -2 3 8 4 -1 -2 -4 -1 -2 -4 -0 2 2 -0 -0 0 1 -0 0 1 1 1 -1 -1 -6 -6 4 3 6 1 -2 -6 -2 -1
-0 -5 -9 1 -3 -3 -5 -6 -1 -2 -2 -3 -5 0 0 -2 -0 -5 2 -1 -0 -0 1 -0 0 -2 0 4 -2 3 1 0 -1 -3 -6 1 3 -2 4 5 -2 -1 -2
0 -1 -4 -4 -1 -6 -2 -6 -5 -1 1 -1 0 -1 -0 0 -5 -1 5 -1 1 -1 -2 0 1 1 -2 -4 -1 2 7 1 -0 -5 -2 -1 4 -3 -1 -1 -2 -2 -5
-2 0 -3 -3 0 -3 0 -3 -2 -3 -2 -2 -2 -1 -1 3 -10 -0 -1 -1 -2 0 -0 -1 -0 -1 2 -1 -1 -0 -1 1 1 -1 -2 0 1 1 3 0 0 1 1
3 -3 0 1 2 -2 -0 -0 -1 -2 -3 -2 -0 0 1 7 -9 1 -0 -1 0 1 2 0 1 -2 2 -0 -1 0 0 0 -1 -1 -4 -1 2 -0 -1 -1 2 -1 -2
2 0 -5 -4 -2 1 -0 -2 -1 -4 -2 -1 1 0 1 3 -3 -0 -1 -2 1 1 1 2 1 -2 3 0 -1 -1 -0 -0 3 -1 -2 -0 -0 -2 -0 -3 -0 -3 -6
1 -2 -1 3 1 -0 -2 -0 -3 -3 -3 -1 3 0 1 -1 2 1 -0 -3 -1 -1 5 2 2 -2 1 1 0 -0 -2 3 1 1 1 0 -0 0 3 1 4 -4 -1
14 -1 -3 4 1 0 0 -1 -4 -3 -1 -0 2 1 -2 -3 -1 -2 1 -2 -2 -2 -1 1 2 1 -1 1 2 1 1 2 3 0 -0 0 1 1 0 -0 0 -1 -1
-6 -0 2 2 1 0 -0 -4 -3 -2 0 1 0 -1 -1 -1 1 -3 1 -0 1 -3 0 1 1 1 1 2 1 1 1 2 2 2 1 1 1 2 1 1 1 1 1
4 -1 5 5 2 -0 -1 -3 -3 -0 -0 -0 -3 -3 -2 -2 -1 -1 1 2 2 -1 -0 0 0 1 1 2 2 2 2 2 2 2 0 0 1 2 1 1 1 1 1
-1 -1 8 8 -2 3 1 -3 1 -1 -0 -2 -2 -2 -1 -1 0 1 -0 1 2 1 1 2 1 2 3 2 3 2 2 2 2 -0 1 2 0 0 -0 1 -0 -1 -1
-3 3 10 4 -3 1 0 -2 0 -1 -0 -2 -1 -2 -3 1 0 -1 -3 -1 -0 0 1 1 2 2 2 2 3 4 2 1 -0 1 2 1 1 2 -1 0 1 -0 -0
-2 6 7 1 0 -1 -2 -1 -3 3 -0 1 3 -1 1 -1 -0 -0 0 -0 -0 0 1 1 1 2 3 2 3 -0 -1 1 1 1 1 -1 -0 -1 1 1 1 -2 -0
3 8 -0 -1 1 -1 -2 -1 -1 -5 -5 1 0 -1 -0 -0 -0 -0 -1 -1 -0 0 0 1 2 2 3 2 2 2 3 3 3 1 0 -0 -0 0 1 -0 1 1 -0
0 1 -3 1 -0 -1 -2 -1 -1 -2 -0 1 -8 -2 1 1 -0 -1 -0 -1 -1 -1 0 1 2 2 2 3 2 1 2 2 2 1 1 1 1 1 0 -0 -1 0 0
0 -1 -0 0 -1 -1 -1 -0 -0 -1 -1 -2 1 -4 -5 -1 1 -1 -1 -1 -1 -0 0 1 1 1 1 1 -0 -1 1 1 1 0 1 1 1 0 0 -0 -1 -2 -0
-1 -0 -1 -0 -0 0 -0 -1 -1 0 -0 -1 -0 -1 -1 -1 -1 -0 -1 -0 -0 -0 0 1 1 1 1 -1 1 1 1 1 1 1 0 1 1 1 1 -0 -1 -2 -1
-2 -2 -1 -1 -1 0 -1 -1 -1 -0 -0 -0 -1 1 -2 -1 -0 -0 -1 -1 -1 -0 0 0 1 1 0 -1 0 1 1 1 2 1 1 2 1 0 -0 0 -0 -1 -0
-0 -1 -1 -0 -0 -0 -1 -1 -1 0 -0 -1 -0 -3 2 -0 -1 -0 -1 -1 -0 -1 0 1 0 0 0 -0 -0 0 1 1 1 1 1 0 0 1 -1 -0 0 0 -1
-0 -0 -0 0 -0 -0 -0 -1 -0 -0 -1 -2 -0 1 -1 -1 -0 -0 -0 -1 -1 -1 -0 1 1 0 0 0 0 1 1 0 0 0 0 0 0 -0 -0 1 0 1 0
-0 -0 -1 -1 -0 -1 0 -0 -1 -1 -0 0 -0 -0 0 -1 -1 -1 -0 -0 -0 -1 -0 0 2 1 0 1 1 1 1 1 0 0 0 -0 -0 -0 -1 -0 -0 -0 -1
-1 0 -0 -0 -1 -1 -1 -2 -1 -1 -1 -1 -0 -1 -0 -0 -1 -0 -1 -1 -1 -1 -1 -0 1 1 1 -0 0 1 1 1 1 1 1 1 0 -0 -1 -0 -0 -0 -0
-0 -0 0 0 -0 -0 -1 -1 -1 -1 -1 -1 -1 -0 -0 -1 0 -0 -0 -0 0 -0 -1 -1 0 1 1 1 0 -0 0 0 0 0 0 0 -0 -0 -1 -1 -0 -0 -1
Height
3076 3071 3066 3061 3055 3048 3041 3034 3026 3018 3014 3008 3003 2998 2994 2990 2985 2981 2978 2975 2971 2968 2965 2962 2960 2957 2955 2953 2951 2948 2946 2943 2942 2945 2944 2946 2945 2946 2947 2947 2947 2947 2948
3066 3061 3056 3051 3045 3038 3031 3024 3018 3010 3004 3000 2995 2991 2986 2983 2978 2974 2971 2967 2963 2959 2956 2954 2951 2948 2946 2944 2942 2940 2939 2939 2937 2934 2935 2935 2935 2936 2935 2935 2935 2936 2937
3060 3055 3049 3043 3036 3029 3022 3015 3008 3003 2999 2995 2990 2985 2980 2977 2972 2966 2962 2958 2955 2951 2948 2945 2942 2940 2938 2936 2934 2931 2929 2928 2926 2924 2922 2923 2923 2923 2923 2923 2923 2924 2924
3051 3046 3039 3034 3026 3019 3011 3006 3000 2996 2992 2988 2984 2978 2973 2967 2962 2957 2954 2949 2946 2943 2939 2936 2934 2931 2928 2926 2924 2921 2919 2917 2915 2913 2912 2912 2912 2913 2912 2912 2912 2913 2913
3042 3037 3029 3023 3016 3010 3003 2998 2994 2990 2985 2980 2975 2970 2964 2958 2953 2948 2945 2941 2938 2934 2931 2928 2924 2920 2918 2916 2912 2910 2909 2906 2905 2903 2902 2902 2902 2901 2902 2902 2900 2899 2899
3034 3026 3019 3013 3006 3000 2994 2988 2984 2980 2976 2971 2966 2961 2956 2951 2943 2941 2937 2932 2928 2924 2920 2917 2914 2910 2907 2904 2901 2900 2899 2896 2894 2893 2892 2890 2890 2890 2890 2889 2888 2887 2887
3024 3018 3011 3004 2998 2992 2987 2981 2977 2973 2968 2963 2958 2953 2948 2943 2934 2931 2927 2922 2917 2914 2910 2906 2902 2900 2897 2894 2891 2889 2887 2886 2884 2883 2881 2882 2880 2881 2879 2878 2878 2877 2876
3017 3009 3002 2996 2990 2984 2980 2975 2971 2965 2961 2956 2951 2945 2939 2934 2926 2923 2918 2913 2908 2904 2900 2896 2893 2890 2888 2884 2881 2879 2877 2876 2875 2874 2872 2872 2870 2870 2869 2868 2867 2866 2866
3009 3002 2994 2989 2984 2979 2974 2968 2963 2958 2953 2948 2943 2937 2932 2927 2920 2915 2909 2903 2899 2894 2890 2886 2882 2880 2877 2874 2871 2869 2868 2868 2867 2865 2863 2862 2860 2859 2858 2855 2854 2855 2855
3002 2994 2988 2984 2978 2973 2967 2962 2957 2951 2946 2941 2936 2931 2925 2919 2913 2907 2901 2895 2889 2884 2880 2877 2873 2870 2867 2865 2863 2861 2860 2860 2858 2857 2856 2855 2853 2852 2850 2847 2846 2846 2847
2996 2988 2983 2978 2972 2966 2961 2955 2950 2945 2939 2935 2930 2925 2919 2912 2905 2898 2893 2886 2880 2875 2871 2868 2865 2862 2859 2858 2856 2854 2853 2852 2851 2850 2850 2849 2848 2846 2844 2843 2841 2841 2841
2987 2981 2976 2970 2965 2960 2955 2949 2944 2939 2934 2929 2924 2918 2912 2905 2899 2891 2886 2880 2874 2868 2864 2861 2858 2856 2853 2851 2849 2847 2846 2845 2845 2845 2845 2844 2843 2842 2840 2838 2837 2835 2835
2978 2973 2968 2962 2957 2953 2948 2943 2938 2934 2930 2924 2918 2912 2906 2899 2892 2886 2880 2874 2868 2863 2859 2855 2852 2850 2848 2846 2843 2841 2840 2841 2841 2842 2841 2840 2839 2838 2837 2835 2833 2831 2830
2969 2965 2960 2955 2951 2948 2943 2938 2934 2930 2925 2920 2913 2907 2900 2894 2887 2880 2874 2868 2864 2859 2855 2852 2849 2847 2844 2842 2839 2837 2837 2838 2838 2839 2838 2838 2837 2836 2835 2833 2831 2828 2827
2961 2957 2952 2948 2945 2942 2938 2934 2930 2925 2921 2915 2909 2903 2895 2889 2883 2876 2869 2864 2860 2856 2852 2850 2847 2845 2842 2840 2837 2835 2835 2835 2835 2835 2835 2835 2835 2834 2833 2832 2830 2829 2827
2953 2950 2946 2942 2940 2937 2934 2930 2926 2922 2917 2912 2906 2899 2893 2886 2879 2872 2866 2861 2858 2854 2852 2849 2846 2843 2841 2839 2837 2836 2834 2833 2832 2832 2832 2832 2832 2832 2831 2830 2829 2828 2826
2946 2943 2939 2938 2936 2933 2930 2926 2922 2917 2912 2908 2902 2896 2890 2883 2876 2869 2863 2859 2856 2854 2851 2848 2845 2843 2841 2839 2838 2836 2835 2833 2831 2830 2828 2828 2829 2829 2829 2828 2827 2827 2825
2941 2937 2936 2934 2932 2929 2926 2922 2918 2914 2909 2904 2897 2893 2887 2880 2874 2867 2862 2858 2855 2853 2850 2848 2845 2843 2841 2840 2838 2836 2834 2832 2830 2828 2826 2824 2824 2825 2825 2825 2825 2824 2823
2936 2934 2933 2931 2928 2926 2923 2919 2915 2911 2906 2901 2896 2890 2884 2878 2872 2866 2860 2856 2854 2852 2849 2847 2845 2843 2841 2839 2837 2836 2834 2832 2830 2828 2826 2824 2822 2822 2822 2822 2822 2822 2820
2933 2932 2929 2927 2925 2922 2919 2916 2912 2908 2903 2899 2894 2888 2883 2877 2871 2865 2860 2855 2853 2850 2848 2846 2844 2842 2840 2839 2838 2837 2835 2832 2830 2828 2827 2824 2823 2821 2821 2820 2819 2819 2818
2930 2928 2926 2924 2922 2919 2916 2912 2908 2905 2900 2896 2891 2886 2881 2875 2870 2864 2859 2855 2852 2849 2847 2845 2843 2842 2840 2839 2838 2837 2835 2833 2831 2829 2827 2825 2823 2822 2820 2819 2818 2817 2816
2928 2925 2923 2921 2918 2916 2913 2909 2905 2901 2897 2893 2888 2883 2879 2874 2869 2864 2859 2855 2851 2848 2846 2844 2842 2841 2840 2839 2838 2836 2834 2833 2831 2829 2827 2825 2824 2822 2820 2818 2817 2815 2814
2925 2923 2920 2918 2915 2912 2910 2906 2902 2898 2894 2890 2886 2881 2877 2873 2868 2863 2859 2855 2851 2848 2845 2843 2842 2840 2839 2838 2837 2836 2834 2832 2830 2828 2827 2825 2824 2822 2820 2818 2816 2814 2813
2922 2920 2917 2915 2912 2909 2907 2903 2899 2895 2891 2887 2883 2879 2875 2871 2867 2863 2859 2855 2851 2848 2845 2843 2841 2840 2839 2838 2836 2835 2833 2831 2830 2828 2826 2825 2823 2822 2819 2818 2816 2814 2812
2919 2917 2914 2911 2909 2906 2903 2900 2897 2893 2889 2885 2881 2877 2873 2869 2866 2862 2858 2854 2851 2848 2846 2843 2841 2839 2838 2837 2835 2834 2832 2830 2829 2827 2825 2824 2822 2820 2818 2817 2815 2813 2811
2915 2913 2910 2908 2906 2903 2900 2897 2894 2890 2886 2882 2878 2874 2871 2867 2864 2860 2857 2853 2850 2848 2845 2843 2841 2839 2837 2836 2834 2833 2831 2829 2828 2826 2824 2822 2821 2819 2817 2815 2813 2811 2810